Temp
53 56 57 54 55 55 52 52 45 53 53 56 59 60 62 63 63 63 63 63 63 62 61 61 60 60 60 59 59 59 58 57 55 55 55 55 54 54 53 53 53 53 52 51
45 52 53 52 56 56 55 56 54 55 54 64 65 64 61 61 62 61 61 62 62 62 61 60 59 59 59 58 57 58 57 56 56 55 55 53 53 52 52 51 51 51 51 50
39 50 48 38 47 54 56 58 56 48 56 64 60 61 60 61 62 61 61 61 60 60 59 59 59 59 57 57 58 57 56 56 55 54 53 52 52 51 50 48 49 48 48 48
41 44 29 52 61 58 57 59 61 59 61 63 63 63 63 64 62 61 59 59 59 58 58 58 59 58 57 58 57 55 54 54 54 53 52 52 50 49 48 48 46 45 45 46
35 37 49 52 55 54 53 54 62 60 61 63 63 62 59 65 63 60 59 59 58 58 58 58 58 57 56 56 56 55 52 52 52 52 51 50 48 47 46 45 44 43 44 44
39 36 32 52 60 64 63 46 63 63 61 61 60 48 52 59 60 59 60 59 57 58 59 58 57 57 55 54 54 52 52 52 52 52 50 48 46 44 44 43 43 43 43 44
37 36 45 59 61 63 42 48 64 65 63 61 55 58 58 59 59 60 59 59 59 59 57 56 57 56 53 53 51 52 53 52 51 51 49 47 44 43 42 42 41 41 41 42
40 35 32 62 58 49 57 63 64 64 63 60 61 59 58 59 59 59 58 59 59 57 56 56 56 54 52 51 53 53 51 50 50 49 49 47 43 42 41 41 39 39 39 39
45 44 58 61 59 63 64 60 61 61 62 62 59 59 58 58 58 58 58 58 59 57 56 56 55 54 50 51 52 51 49 48 48 48 45 44 41 40 39 40 38 37 37 36
49 57 59 60 63 63 65 62 63 63 62 60 57 57 57 57 57 57 58 57 57 55 54 52 53 53 52 52 51 49 47 47 47 43 41 42 42 41 39 38 36 36 35 34
51 58 59 60 61 62 63 64 63 63 62 60 59 58 57 57 58 57 57 56 56 54 52 52 52 52 52 51 49 46 46 47 45 42 40 40 41 40 40 41 38 36 35 35
47 58 56 58 62 64 61 61 62 60 59 60 60 58 59 58 59 57 55 55 54 53 52 51 52 50 51 49 47 45 44 44 42 40 38 39 38 38 39 38 38 38 37 36
57 63 62 62 63 65 62 61 62 60 60 57 59 59 59 58 56 47 54 54 53 52 51 51 50 49 49 47 45 44 43 43 41 38 38 36 36 36 34 37 38 38 37 37
64 62 57 59 58 63 63 63 60 62 61 60 59 59 58 57 51 53 53 54 53 52 51 50 48 47 47 45 44 44 44 36 39 38 38 36 36 36 36 34 33 34 37 36
60 61 61 61 61 60 62 61 58 57 58 57 59 57 56 54 51 53 54 53 52 51 50 48 46 45 45 43 43 43 43 39 38 38 37 36 36 35 35 35 34 33 34 35
59 59 59 57 58 57 58 57 55 54 55 55 55 55 54 55 54 54 53 51 47 46 48 45 44 45 42 42 42 41 39 36 35 38 36 35 35 34 34 34 33 32 32 32
52 52 54 53 54 55 55 55 55 54 52 53 54 54 54 53 52 51 50 50 48 46 46 45 43 43 41 41 40 38 37 37 35 37 35 34 33 33 33 32 31 31 31 32
58 57 57 56 53 51 52 53 52 52 50 52 52 50 46 45 45 46 45 44 41 40 43 45 41 38 39 39 36 36 36 36 35 35 34 32 32 32 32 31 30 30 30 31
58 58 58 57 56 53 51 51 51 51 49 47 41 37 37 36 39 37 38 32 30 32 36 39 32 33 37 35 34 35 34 33 33 33 32 31 31 31 30 29 29 29 29 29
56 57 58 57 56 52 52 50 50 48 46 38 35 33 33 33 33 33 33 33 34 36 37 36 35 35 34 34 33 35 34 32 32 31 30 30 29 29 29 28 28 28 27 27
53 55 54 51 48 45 43 44 44 41 41 35 36 35 34 32 32 32 31 32 33 34 35 33 34 35 36 35 33 34 32 31 30 30 29 28 28 27 27 27 27 27 26 25
53 51 45 44 44 44 46 46 48 43 40 35 34 34 32 32 32 32 33 34 36 33 35 35 36 32 33 27 35 32 32 31 30 30 29 28 28 27 27 26 25 25 25 24
53 53 48 43 45 48 49 49 44 43 35 35 34 35 36 37 36 35 33 36 38 34 37 38 30 27 26 31 33 32 31 30 29 29 28 27 27 26 25 24 24 24 23 22
52 54 50 50 51 49 47 49 47 45 39 39 37 36 40 39 39 42 43 36 36 33 36 31 28 26 24 33 32 31 30 29 28 28 28 24 25 24 24 23 22 23 22 21
54 54 51 50 49 48 50 51 48 46 44 43 40 39 44 45 41 43 40 36 31 35 33 27 25 24 29 31 30 29 29 28 26 27 26 25 24 22 22 21 21 21 21 20
53 51 50 50 50 51 50 50 46 44 44 42 41 40 43 44 43 43 39 35 34 34 32 28 27 27 30 30 29 27 28 27 27 26 24 24 23 22 20 20 20 20 20 19
52 46 48 48 51 50 48 47 45 43 44 44 42 42 41 42 42 41 36 35 34 33 32 30 30 28 30 29 28 28 28 25 19 24 23 23 21 20 18 19 19 19 18 17
MSLP
1010.80 1010.42 1010.14 1010.41 1010.48 1010.89 1011.12 1011.50 1011.57 1011.44 1011.72 1012.68 1013.66 1014.59 1015.28 1016.27 1017.07 1017.78 1018.42 1018.96 1019.65 1020.36 1021.01 1021.53 1021.95 1022.28 1022.44 1022.48 1022.46 1022.30 1022.00 1021.85 1021.56 1021.39 1021.12 1020.76 1020.30 1019.76 1019.19 1018.60 1018.25 1017.74 1017.03 1016.70
1011.73 1011.67 1011.31 1010.72 1010.59 1010.73 1010.98 1011.17 1011.57 1011.73 1011.92 1012.42 1013.40 1014.37 1015.65 1016.51 1017.17 1017.73 1018.37 1019.09 1019.82 1020.50 1021.15 1021.66 1022.06 1022.25 1022.39 1022.58 1022.49 1022.24 1022.05 1021.81 1021.65 1021.47 1021.17 1020.82 1020.33 1019.73 1019.18 1018.62 1018.13 1017.51 1016.86 1016.25
1012.21 1012.18 1012.18 1011.81 1010.61 1010.29 1010.33 1010.63 1010.97 1011.29 1011.89 1012.37 1013.29 1014.17 1015.40 1016.29 1016.93 1017.75 1018.56 1019.47 1020.21 1020.87 1021.45 1021.90 1022.13 1022.26 1022.46 1022.53 1022.40 1022.26 1022.12 1021.98 1021.89 1021.66 1021.26 1020.78 1020.23 1019.75 1019.19 1018.56 1017.95 1017.47 1016.93 1016.25
1012.32 1012.74 1012.22 1009.76 1009.37 1009.85 1009.72 1009.94 1010.37 1011.08 1011.56 1012.09 1013.03 1014.41 1015.38 1016.20 1017.10 1018.03 1019.14 1019.98 1020.61 1021.24 1021.73 1022.10 1022.20 1022.37 1022.62 1022.58 1022.46 1022.40 1022.27 1022.31 1022.11 1021.83 1021.32 1020.83 1020.36 1019.82 1019.36 1018.77 1018.03 1017.33 1016.73 1016.10
1012.48 1012.20 1010.55 1009.65 1009.29 1009.17 1009.08 1009.31 1009.76 1010.47 1011.54 1012.20 1013.44 1014.67 1015.70 1016.50 1017.32 1018.57 1019.58 1020.28 1020.93 1021.46 1021.84 1022.07 1022.31 1022.60 1022.67 1022.58 1022.51 1022.39 1022.50 1022.47 1022.22 1021.82 1021.38 1020.93 1020.42 1019.94 1019.63 1019.08 1018.44 1017.47 1016.61 1015.80
1012.30 1011.48 1009.97 1008.39 1008.39 1008.94 1009.08 1009.13 1009.08 1010.07 1011.00 1012.22 1013.57 1015.05 1016.10 1017.21 1018.14 1019.03 1019.75 1020.49 1020.99 1021.52 1021.71 1022.02 1022.42 1022.67 1022.70 1022.56 1022.46 1022.59 1022.65 1022.49 1022.20 1021.89 1021.55 1021.07 1020.74 1020.47 1020.03 1019.49 1018.57 1017.66 1016.65 1015.86
1012.12 1011.28 1009.47 1008.17 1008.69 1009.16 1009.54 1008.78 1008.47 1009.48 1010.84 1012.05 1013.53 1014.91 1016.37 1017.60 1018.40 1019.13 1019.90 1020.29 1020.84 1021.18 1021.51 1022.03 1022.39 1022.65 1022.67 1022.62 1022.73 1022.86 1022.79 1022.60 1022.36 1022.08 1021.75 1021.40 1021.24 1020.88 1020.23 1019.43 1018.60 1017.71 1016.70 1015.83
1011.21 1010.55 1009.19 1007.83 1008.92 1008.87 1008.71 1008.79 1009.08 1009.99 1011.09 1012.26 1013.64 1015.02 1016.48 1017.46 1018.14 1018.86 1019.52 1020.04 1020.51 1020.93 1021.48 1022.00 1022.39 1022.69 1022.81 1022.84 1022.97 1022.99 1022.89 1022.72 1022.47 1022.24 1021.96 1021.87 1021.62 1021.04 1020.27 1019.34 1018.42 1017.55 1016.58 1015.58
1008.51 1007.80 1007.24 1007.11 1007.90 1008.49 1008.89 1009.46 1010.20 1010.96 1011.90 1012.82 1013.99 1015.06 1016.28 1017.13 1017.95 1018.73 1019.38 1019.85 1020.42 1021.04 1021.57 1022.04 1022.45 1022.74 1022.92 1023.06 1023.11 1023.13 1023.06 1022.88 1022.58 1022.41 1022.51 1022.21 1021.76 1020.98 1020.28 1019.44 1018.71 1017.84 1016.90 1015.91
1007.10 1006.56 1006.64 1007.35 1007.94 1008.55 1009.10 1010.00 1010.81 1011.64 1012.50 1013.50 1014.48 1015.47 1016.37 1017.08 1017.72 1018.49 1019.15 1019.82 1020.54 1021.12 1021.57 1022.15 1022.58 1022.86 1023.07 1023.15 1023.29 1023.35 1023.27 1022.97 1022.71 1022.90 1022.89 1022.46 1021.77 1021.16 1020.46 1019.50 1018.95 1018.23 1017.27 1016.33
1005.94 1005.83 1006.61 1007.46 1007.96 1008.51 1009.32 1010.19 1011.18 1012.02 1012.80 1013.75 1014.65 1015.40 1016.26 1016.93 1017.48 1018.31 1019.16 1019.94 1020.66 1021.16 1021.71 1022.24 1022.64 1022.88 1023.13 1023.31 1023.57 1023.53 1023.37 1023.06 1022.98 1023.25 1023.10 1022.59 1021.92 1021.22 1020.68 1019.99 1019.47 1018.65 1017.87 1016.99
1004.84 1005.25 1005.85 1006.58 1007.60 1008.34 1009.34 1010.24 1011.14 1012.10 1013.10 1013.88 1014.56 1015.25 1016.01 1016.72 1017.42 1018.52 1019.30 1020.04 1020.60 1021.16 1021.72 1022.23 1022.58 1022.97 1023.26 1023.64 1023.76 1023.61 1023.37 1023.21 1023.31 1023.42 1023.28 1022.77 1022.06 1021.31 1020.78 1020.16 1019.42 1018.77 1018.07 1017.40
1004.62 1004.98 1005.77 1006.52 1007.34 1008.13 1009.00 1010.01 1011.02 1012.08 1012.92 1013.81 1014.63 1015.21 1015.94 1016.60 1017.73 1019.01 1019.66 1020.11 1020.59 1021.15 1021.74 1022.17 1022.64 1023.08 1023.45 1023.82 1023.97 1023.68 1023.46 1023.41 1023.46 1023.59 1023.38 1022.93 1022.28 1021.58 1020.69 1019.92 1019.53 1018.80 1018.05 1017.40
1004.77 1005.25 1006.08 1006.74 1007.31 1008.12 1008.78 1009.60 1010.74 1011.93 1012.80 1013.52 1014.34 1015.18 1015.95 1016.65 1017.97 1018.95 1019.55 1020.15 1020.79 1021.28 1021.70 1022.18 1022.78 1023.19 1023.68 1024.02 1024.06 1023.68 1023.52 1023.52 1023.77 1023.68 1023.31 1023.10 1022.57 1022.00 1021.38 1020.69 1019.90 1019.11 1018.33 1017.79
1004.95 1005.62 1006.06 1007.10 1007.86 1008.38 1008.98 1009.62 1010.61 1011.58 1012.64 1013.53 1014.28 1014.90 1015.82 1016.80 1018.01 1018.73 1019.51 1020.41 1020.97 1021.39 1021.76 1022.42 1022.90 1023.35 1023.90 1024.23 1024.05 1023.84 1023.64 1023.99 1023.91 1023.39 1023.13 1023.13 1022.69 1022.22 1021.71 1021.15 1020.65 1019.95 1019.01 1018.10
1005.12 1005.94 1006.54 1007.15 1007.90 1008.65 1009.28 1009.91 1010.79 1011.88 1012.79 1013.66 1014.39 1015.13 1016.10 1017.06 1017.85 1018.71 1019.64 1020.57 1021.24 1021.57 1022.04 1022.69 1023.13 1023.64 1024.21 1024.35 1024.20 1024.14 1024.23 1024.15 1023.69 1023.34 1023.15 1023.21 1022.92 1022.45 1022.06 1021.61 1021.08 1020.49 1019.83 1019.20
1005.12 1005.73 1006.36 1007.05 1007.86 1008.48 1009.21 1010.20 1011.09 1012.02 1012.99 1013.78 1014.57 1015.65 1016.65 1017.42 1018.06 1019.04 1019.82 1020.69 1021.39 1022.00 1022.46 1022.85 1023.36 1023.96 1024.36 1024.38 1024.47 1024.50 1024.38 1024.01 1023.76 1023.52 1023.61 1023.58 1023.41 1022.88 1022.55 1022.19 1021.74 1021.18 1020.63 1020.01
1004.78 1005.38 1005.85 1006.65 1007.52 1008.42 1009.21 1010.18 1011.20 1012.20 1013.10 1014.00 1015.05 1016.17 1017.18 1017.99 1018.64 1019.39 1020.14 1021.03 1021.77 1022.34 1022.73 1023.05 1023.71 1024.35 1024.49 1024.58 1024.96 1024.81 1024.54 1024.23 1024.11 1023.95 1024.01 1023.97 1023.75 1023.34 1023.00 1022.70 1022.28 1021.75 1021.19 1020.60
1004.57 1004.95 1005.57 1006.41 1007.40 1008.37 1009.25 1010.10 1011.08 1012.20 1013.21 1014.23 1015.44 1016.62 1017.79 1018.66 1019.15 1019.96 1020.74 1021.77 1022.50 1022.90 1023.10 1023.39 1024.06 1024.45 1024.56 1024.93 1025.05 1024.77 1024.68 1024.60 1024.50 1024.37 1024.29 1024.19 1024.00 1023.72 1023.42 1023.20 1022.77 1022.32 1021.78 1021.21
1004.22 1004.76 1005.15 1006.04 1007.03 1008.09 1009.12 1010.03 1011.08 1012.22 1013.25 1014.65 1015.76 1017.11 1018.37 1019.32 1019.97 1020.63 1021.24 1021.95 1022.27 1022.61 1023.08 1023.48 1023.96 1024.27 1024.62 1024.68 1024.68 1024.57 1024.59 1024.64 1024.58 1024.52 1024.49 1024.38 1024.24 1024.02 1023.80 1023.54 1023.25 1022.88 1022.40 1021.96
1003.81 1004.51 1005.12 1005.88 1007.01 1007.96 1008.95 1009.96 1010.99 1012.28 1013.58 1014.79 1015.77 1017.04 1018.13 1019.32 1020.08 1020.72 1021.44 1021.91 1022.15 1022.65 1022.96 1023.38 1023.86 1024.07 1024.20 1024.28 1024.41 1024.36 1024.57 1024.64 1024.69 1024.66 1024.64 1024.60 1024.45 1024.31 1024.13 1023.93 1023.69 1023.40 1023.00 1022.67
1003.35 1004.27 1005.25 1005.98 1006.93 1008.00 1008.77 1009.88 1010.96 1012.33 1013.52 1014.76 1015.91 1017.04 1018.10 1019.11 1019.90 1020.51 1020.78 1021.11 1021.52 1022.17 1022.66 1023.10 1023.40 1023.69 1023.90 1024.17 1024.16 1024.44 1024.59 1024.64 1024.68 1024.68 1024.65 1024.62 1024.57 1024.50 1024.37 1024.26 1024.10 1023.81 1023.52 1023.27
1002.93 1003.81 1004.97 1005.91 1006.78 1007.72 1008.74 1009.76 1011.01 1012.12 1013.40 1014.53 1015.57 1016.58 1017.26 1017.87 1018.68 1019.46 1020.04 1020.49 1020.94 1021.63 1022.11 1022.41 1022.88 1023.46 1023.83 1024.09 1024.13 1024.32 1024.47 1024.61 1024.74 1024.74 1024.73 1024.77 1024.78 1024.70 1024.70 1024.75 1024.62 1024.36 1024.08 1023.82
1002.58 1003.28 1004.51 1005.63 1006.55 1007.68 1008.55 1009.51 1010.80 1011.97 1013.10 1014.02 1014.91 1015.62 1016.34 1017.20 1018.04 1018.38 1018.57 1019.16 1020.10 1021.00 1021.57 1022.32 1022.87 1023.26 1023.62 1023.76 1023.96 1024.23 1024.49 1024.73 1024.91 1024.91 1024.94 1024.97 1025.09 1024.92 1025.01 1025.11 1025.01 1024.83 1024.60 1024.32
1002.38 1003.17 1004.35 1005.39 1006.10 1007.07 1008.13 1009.12 1010.38 1011.58 1012.74 1013.62 1014.53 1015.31 1015.73 1016.20 1016.81 1017.40 1018.33 1019.25 1020.09 1020.68 1021.51 1022.32 1022.77 1023.17 1023.44 1023.66 1023.94 1024.20 1024.44 1024.72 1025.08 1025.08 1025.12 1025.22 1025.34 1025.22 1025.35 1025.45 1025.31 1025.12 1024.98 1024.79
1002.28 1003.18 1004.26 1005.10 1005.70 1006.52 1007.56 1008.66 1009.71 1011.01 1011.96 1012.91 1013.97 1014.74 1015.26 1015.66 1016.38 1016.91 1017.98 1018.99 1019.83 1020.40 1021.17 1022.06 1022.59 1022.96 1023.13 1023.44 1023.78 1024.10 1024.36 1024.70 1025.06 1025.18 1025.22 1025.41 1025.56 1025.53 1025.66 1025.66 1025.53 1025.32 1025.17 1025.09
1002.45 1003.39 1004.41 1005.19 1005.67 1006.42 1007.26 1008.38 1009.45 1010.48 1011.16 1012.02 1013.06 1014.09 1014.82 1015.33 1015.92 1016.69 1017.74 1018.67 1019.34 1020.16 1020.75 1021.51 1022.13 1022.56 1022.83 1023.26 1023.62 1023.97 1024.25 1024.75 1025.36 1025.28 1025.38 1025.59 1025.74 1025.80 1025.94 1025.85 1025.66 1025.44 1025.36 1025.29
Wind_Speed
2 4 8 14 16 15 14 8 6 6 15 18 16 12 8 5 7 5 5 2 4 6 6 7 8 7 8 9 9 10 10 11 9 11 12 13 14 14 14 13 14 17 14 12
5 4 1 8 11 16 16 15 11 7 4 8 9 9 6 8 8 5 2 2 4 6 7 8 9 8 8 9 9 9 10 10 12 12 13 13 14 15 16 15 15 15 16 16
6 8 3 5 17 17 15 17 14 13 10 8 5 8 10 9 7 5 2 4 5 6 7 8 8 8 9 9 9 9 10 12 13 13 14 15 16 16 17 17 16 17 17 16
6 9 5 5 6 21 17 15 15 11 9 9 10 10 10 5 5 5 6 2 4 5 6 7 7 8 8 9 9 9 10 12 12 13 14 14 15 15 16 16 18 18 17 17
5 10 2 7 7 7 15 15 14 15 12 8 9 6 5 9 8 8 3 5 4 4 5 5 7 8 8 8 9 9 11 11 12 13 14 15 16 16 16 15 16 17 18 19
5 4 8 2 12 7 9 9 14 14 13 12 12 8 7 11 9 5 6 4 4 3 3 5 6 7 8 8 8 10 11 11 13 13 14 15 15 17 15 16 15 14 16 17
6 5 6 13 14 11 8 3 14 15 12 13 11 5 14 10 7 7 5 4 4 1 3 5 5 7 8 8 9 10 10 12 12 13 14 14 15 15 16 15 14 15 16 15
10 7 9 18 16 12 6 6 10 11 10 10 10 14 12 8 7 8 5 2 3 2 5 4 6 6 8 9 9 10 11 11 12 12 11 12 16 15 15 15 15 15 15 14
12 8 4 20 9 10 10 12 10 9 10 10 9 8 7 6 9 7 4 3 3 4 3 5 6 6 7 8 9 10 10 11 11 12 13 12 14 14 12 13 12 13 13 13
10 10 14 17 11 13 12 12 12 10 12 10 10 9 8 8 8 7 4 4 4 2 4 5 6 6 7 8 10 10 10 10 10 11 12 13 10 10 11 12 12 13 12 13
11 13 14 18 13 16 13 13 13 11 11 12 10 11 9 9 9 8 5 5 3 3 3 4 5 6 7 9 9 10 9 9 9 8 10 11 11 11 11 12 12 12 11 12
7 12 9 16 17 15 16 14 14 13 11 9 9 10 11 8 8 8 6 5 3 3 3 3 4 6 7 8 9 9 8 7 6 7 8 9 10 10 12 12 16 17 19 15
5 12 13 14 14 17 15 15 14 11 11 12 10 9 9 9 10 6 6 6 4 3 2 2 4 5 7 8 8 8 8 8 6 6 8 9 10 10 12 12 15 16 17 23
9 7 15 12 11 15 12 16 15 15 12 10 12 12 9 9 11 9 8 6 5 4 2 3 3 4 6 7 8 8 8 5 7 7 6 8 9 9 9 11 13 13 15 18
11 9 8 13 11 9 8 9 12 11 12 11 9 9 11 11 11 9 8 7 5 3 3 3 2 4 6 6 8 8 7 6 7 6 3 7 7 8 8 9 10 11 12 14
11 14 11 14 13 13 12 11 12 12 9 10 10 11 11 11 10 9 9 7 5 3 3 2 1 4 5 6 7 6 6 8 6 6 5 7 8 8 9 9 10 10 10 12
14 14 12 12 15 15 16 13 11 11 10 11 11 12 12 10 10 10 9 7 5 4 2 2 2 4 4 4 6 5 5 6 7 6 6 7 8 8 8 8 9 9 10 11
12 13 14 14 10 10 12 12 11 11 10 12 10 11 9 8 8 8 7 7 5 4 1 2 4 3 3 4 5 4 5 5 6 6 6 8 7 8 7 8 9 9 9 11
16 15 16 15 13 10 9 11 13 12 10 10 9 9 8 7 7 8 9 7 5 4 4 4 6 2 1 3 4 3 5 5 6 5 6 6 6 6 6 7 8 9 9 10
15 15 14 16 14 13 12 10 12 11 8 11 12 11 9 9 10 9 8 7 5 3 5 5 4 2 2 4 2 2 4 3 6 6 4 5 5 6 6 8 8 8 9 9
16 14 12 12 11 10 9 9 11 10 11 13 14 13 12 11 10 10 9 6 7 7 5 6 4 3 3 2 2 3 2 4 5 5 5 6 6 6 6 7 7 8 8 9
15 13 7 8 11 11 12 12 13 12 12 11 8 10 12 11 10 8 5 5 5 9 6 5 6 5 3 0 0 2 3 2 2 3 4 5 5 5 5 6 7 7 7 8
13 14 10 11 13 14 14 14 13 14 12 12 13 13 12 9 9 9 7 10 6 9 7 4 9 8 6 3 2 1 1 1 2 2 2 3 3 4 5 6 6 6 7 8
11 11 12 13 14 14 16 15 15 14 11 13 12 12 12 9 7 7 4 10 9 12 4 7 7 8 5 2 2 2 1 1 1 1 2 3 3 3 4 4 5 6 6 7
11 12 13 14 15 13 15 15 14 12 12 11 12 11 11 7 5 7 8 7 10 10 7 7 8 7 4 3 3 2 2 2 2 1 2 2 2 3 3 4 4 5 5 6
12 9 10 13 11 10 10 12 10 10 10 10 9 9 7 6 7 6 9 10 8 7 7 6 5 5 4 4 4 3 3 3 2 1 1 2 2 3 2 3 3 4 4 5
10 11 10 10 10 11 10 11 11 12 10 10 10 9 8 6 7 8 10 9 8 7 7 7 6 6 5 5 5 4 3 5 2 2 2 2 2 2 2 2 3 3 3 4
Wind_Direction
64 49 161 183 190 190 199 199 193 214 172 179 184 185 185 160 156 175 198 130 46 27 22 18 13 4 354 6 350 343 345 342 349 349 342 338 334 329 325 327 325 317 315 310
174 167 193 197 202 195 209 205 206 223 209 108 130 142 156 187 192 187 206 79 34 19 10 12 1 355 0 355 345 340 349 341 354 344 339 334 330 327 327 325 321 322 320 320
205 182 160 271 228 216 211 213 213 213 214 219 157 176 178 190 190 181 131 61 22 19 15 5 355 355 5 345 343 352 340 359 347 341 337 334 332 332 329 326 325 327 322 321
146 140 215 183 140 211 219 216 210 217 226 213 167 174 186 160 180 143 88 46 35 26 11 353 349 15 351 346 344 343 4 352 344 337 331 333 334 331 328 331 329 328 325 322
157 201 317 185 193 189 190 220 205 205 196 182 152 120 175 211 123 113 107 89 69 41 357 348 11 358 346 338 349 354 0 345 337 334 337 340 333 340 339 331 328 323 322 321
195 204 206 270 148 170 187 236 201 197 186 183 150 186 134 114 115 127 117 102 91 29 354 5 11 354 339 343 346 1 350 340 340 344 342 335 350 341 334 328 321 319 316 316
188 226 268 138 143 151 162 215 170 173 182 175 165 162 117 122 148 131 135 136 88 50 41 28 4 355 344 345 6 353 341 346 343 346 340 356 343 341 331 324 321 318 314 314
199 202 235 149 148 177 141 121 129 149 152 151 160 129 130 143 155 151 146 115 92 60 44 25 28 2 347 359 355 350 350 343 343 349 360 350 344 337 327 326 325 325 324 326
193 200 246 156 151 150 143 132 135 143 140 151 146 144 150 166 163 156 142 125 92 52 17 40 21 11 356 356 354 354 346 341 344 353 2 350 341 332 331 333 336 333 333 330
168 204 167 159 156 151 155 147 147 151 149 156 160 160 170 177 169 161 163 107 75 35 36 26 22 11 4 359 4 354 343 336 351 4 351 347 335 336 334 338 340 336 335 335
192 164 161 169 172 155 160 156 155 158 158 165 174 177 178 187 182 150 130 119 104 73 46 28 12 17 5 15 4 352 339 345 4 353 348 340 338 339 337 341 337 338 340 339
194 180 161 179 169 173 165 170 167 166 164 176 180 185 175 194 152 141 152 135 143 100 65 29 16 14 14 14 1 345 335 346 357 353 344 338 336 337 335 334 332 335 340 348
193 178 172 168 181 180 174 172 175 175 188 170 181 187 179 178 142 115 148 159 148 115 91 32 34 10 20 10 353 335 344 340 352 352 345 345 340 341 341 346 342 340 347 355
206 165 165 153 175 182 190 175 171 184 182 188 179 181 191 151 128 164 176 152 138 135 125 73 27 20 27 10 343 337 336 13 7 327 346 345 338 340 342 348 345 345 349 356
167 170 148 152 164 167 177 183 158 170 176 184 191 180 162 166 154 180 149 153 156 159 151 84 31 28 27 0 340 342 351 6 325 311 7 348 339 341 343 347 347 344 344 354
193 165 188 170 182 172 182 169 169 176 184 182 185 162 153 174 168 159 156 157 160 171 96 80 25 33 23 344 347 347 10 326 308 333 18 351 347 346 348 349 350 350 351 354
192 198 185 185 184 186 182 179 180 177 179 178 169 159 158 179 154 159 164 150 147 139 153 177 94 47 356 343 5 347 340 326 344 345 21 359 349 348 352 351 352 352 351 353
212 198 198 188 181 179 178 174 172 178 177 169 162 161 157 163 162 154 135 120 105 83 5 100 86 44 312 15 6 340 341 349 356 0 3 354 349 350 355 352 353 352 352 352
207 216 195 193 185 181 177 173 170 170 168 158 141 145 143 134 130 120 113 113 130 169 216 135 118 215 8 347 333 332 349 358 345 355 353 348 350 347 354 356 351 353 355 354
209 214 204 191 187 178 183 173 160 160 148 128 124 131 135 144 140 136 137 163 172 143 146 145 172 155 236 246 242 301 350 349 342 347 349 353 353 352 355 359 353 353 356 357
201 209 211 176 173 160 163 151 155 145 142 144 147 159 160 155 155 153 161 186 206 192 180 153 192 189 222 83 270 77 1 342 343 346 349 351 350 358 355 360 357 357 359 1
191 197 194 149 145 151 150 154 157 150 143 145 132 133 140 158 166 178 191 176 164 163 167 189 192 173 119 215 101 62 322 333 334 335 342 355 356 0 2 11 359 1 5 3
189 193 166 145 153 155 150 159 149 159 150 157 156 159 168 168 170 172 196 199 189 177 179 195 128 140 142 195 148 200 276 8 343 356 12 5 7 12 13 14 0 1 3 3
183 174 155 154 155 154 161 164 155 164 166 167 165 162 160 160 175 194 169 145 163 157 175 132 141 142 165 182 145 131 172 94 8 5 16 22 22 25 23 7 4 358 2 3
178 161 153 166 174 171 170 164 160 158 165 164 160 166 170 172 165 167 137 135 141 151 139 134 141 149 178 157 156 156 154 112 60 353 25 45 10 41 28 5 360 358 3 358
164 154 161 173 174 170 165 173 163 157 162 156 155 165 177 164 157 145 136 143 154 167 147 146 164 179 169 166 157 164 152 128 172 104 18 55 18 48 24 358 356 357 6 352
158 145 157 167 168 161 158 155 155 163 161 156 155 161 165 168 155 142 144 152 148 170 145 147 167 181 169 157 168 165 163 126 49 73 73 64 40 45 18 351 351 346 8 350